NOZ602 ENGM-ENBR

Flight info

Callsign NOZ602
Flight time 0h 44m
Altitude 28000
Route ATLAP DCT AGEKU DCT PESUR
Aircraft B738/M-SDE2E3FGHIRWXY/LB1

Departure

Time 2026-05-05 18:52
Airport Oslo-Gardermoen International Airport (ENGM)

Arrival

Time 2026-05-05 19:36
Airport Bergen Airport, Flesland (ENBR)
Time Latitude Longitude Altitude Speed Heading
2026-05-05 18:26 60.19591 11.09933 681 ft 0 kts 107°
2026-05-05 18:39 60.19594 11.09914 678 ft 4 kts 107°
2026-05-05 18:39 60.19602 11.09862 679 ft 4 kts 107°
2026-05-05 18:39 60.19607 11.09827 678 ft 0 kts 107°
2026-05-05 18:45 60.19610 11.09835 676 ft 1 kts 51°
2026-05-05 18:45 60.19621 11.09828 678 ft 4 kts 330°
2026-05-05 18:46 60.19640 11.09793 681 ft 6 kts 317°
2026-05-05 18:46 60.19688 11.09742 681 ft 9 kts 336°
2026-05-05 18:46 60.19721 11.09647 680 ft 8 kts 288°
2026-05-05 18:46 60.19736 11.09535 681 ft 8 kts 287°
2026-05-05 18:47 60.19753 11.09425 678 ft 9 kts 285°
2026-05-05 18:47 60.19775 11.09266 681 ft 17 kts 286°
2026-05-05 18:47 60.19813 11.08998 676 ft 22 kts 286°
2026-05-05 18:47 60.19847 11.08771 676 ft 13 kts 287°
2026-05-05 18:48 60.19863 11.08597 676 ft 13 kts 254°
2026-05-05 18:48 60.19786 11.08512 674 ft 13 kts 194°
2026-05-05 18:48 60.19701 11.08463 675 ft 13 kts 195°
2026-05-05 18:48 60.19618 11.08416 676 ft 12 kts 195°
2026-05-05 18:49 60.19526 11.08363 676 ft 17 kts 196°
2026-05-05 18:49 60.19400 11.08290 675 ft 19 kts 197°
2026-05-05 18:49 60.19272 11.08216 673 ft 10 kts 200°
2026-05-05 18:49 60.19264 11.08207 673 ft 4 kts 213°
2026-05-05 18:50 60.19252 11.08090 670 ft 12 kts 287°
2026-05-05 18:50 60.19286 11.07928 667 ft 13 kts 313°
2026-05-05 18:50 60.19358 11.07876 669 ft 8 kts
2026-05-05 18:50 60.19385 11.07888 669 ft 0 kts 15°
2026-05-05 18:51 60.19513 11.07961 669 ft 55 kts 16°
2026-05-05 18:51 60.20128 11.08313 674 ft 126 kts 16°
2026-05-05 18:51 60.21146 11.08921 843 ft 168 kts 15°
2026-05-05 18:52 60.22281 11.09641 1671 ft 174 kts 13°
2026-05-05 18:52 60.23432 11.10304 2629 ft 172 kts 11°
2026-05-05 18:52 60.24608 11.10921 3475 ft 173 kts 10°
2026-05-05 18:52 60.25787 11.11451 4264 ft 178 kts
2026-05-05 18:53 60.27007 11.11326 5084 ft 176 kts 345°
2026-05-05 18:53 60.28238 11.10869 5767 ft 188 kts 347°
2026-05-05 18:53 60.29567 11.10089 5969 ft 211 kts 326°
2026-05-05 18:53 60.30544 11.07836 6213 ft 229 kts 291°
2026-05-05 18:54 60.30631 11.04475 6434 ft 254 kts 252°
2026-05-05 18:54 60.29910 11.01207 6980 ft 261 kts 253°
2026-05-05 18:54 60.29715 10.97583 7013 ft 260 kts 270°
2026-05-05 18:54 60.29722 10.93916 7010 ft 261 kts 271°
2026-05-05 18:55 60.29735 10.90269 7009 ft 261 kts 271°
2026-05-05 18:55 60.29750 10.86574 7290 ft 265 kts 271°
2026-05-05 18:55 60.29763 10.82866 8239 ft 264 kts 271°
2026-05-05 18:55 60.29776 10.79147 9159 ft 266 kts 270°
2026-05-05 18:56 60.29787 10.75448 9994 ft 269 kts 270°
2026-05-05 18:56 60.29797 10.71527 10408 ft 288 kts 270°
2026-05-05 18:56 60.29807 10.67316 10616 ft 312 kts 270°
2026-05-05 18:56 60.29816 10.62777 10811 ft 334 kts 270°
2026-05-05 18:57 60.29823 10.58003 11330 ft 344 kts 270°
2026-05-05 18:57 60.29828 10.53226 12088 ft 346 kts 270°
2026-05-05 18:57 60.29831 10.48358 12935 ft 348 kts 271°
2026-05-05 18:57 60.29832 10.43394 13788 ft 351 kts 271°
2026-05-05 18:58 60.29831 10.38529 14577 ft 352 kts 271°
2026-05-05 18:58 60.29829 10.33594 15465 ft 351 kts 271°
2026-05-05 18:58 60.29825 10.28696 16348 ft 350 kts 271°
2026-05-05 18:58 60.29819 10.23784 17187 ft 351 kts 271°
2026-05-05 18:59 60.29811 10.18854 18018 ft 352 kts 271°
2026-05-05 18:59 60.29801 10.13905 18724 ft 353 kts 270°
2026-05-05 18:59 60.29790 10.08975 19531 ft 350 kts 270°
2026-05-05 18:59 60.29777 10.04080 20317 ft 348 kts 270°
2026-05-05 19:00 60.29762 9.99203 21096 ft 347 kts 270°
2026-05-05 19:00 60.29745 9.94361 21848 ft 345 kts 270°
2026-05-05 19:00 60.29727 9.89512 22524 ft 345 kts 270°
2026-05-05 19:00 60.29707 9.84673 23157 ft 346 kts 270°
2026-05-05 19:01 60.29685 9.79821 23751 ft 345 kts 270°
2026-05-05 19:01 60.29662 9.74959 24195 ft 348 kts 270°
2026-05-05 19:01 60.29636 9.70130 24538 ft 352 kts 270°
2026-05-05 19:01 60.29608 9.65104 24984 ft 354 kts 270°
2026-05-05 19:02 60.29579 9.60201 25442 ft 354 kts 270°
2026-05-05 19:02 60.29548 9.55244 25949 ft 354 kts 270°
2026-05-05 19:02 60.29514 9.50289 26477 ft 353 kts 269°
2026-05-05 19:02 60.29479 9.45300 27073 ft 350 kts 269°
2026-05-05 19:03 60.29443 9.40452 27605 ft 350 kts 269°
2026-05-05 19:03 60.29404 9.35536 27884 ft 352 kts 269°
2026-05-05 19:03 60.29364 9.30625 27922 ft 351 kts 269°
2026-05-05 19:03 60.29322 9.25674 27913 ft 353 kts 269°
2026-05-05 19:04 60.29278 9.20725 27900 ft 353 kts 269°
2026-05-05 19:04 60.29232 9.15789 27913 ft 353 kts 269°
2026-05-05 19:04 60.29184 9.10849 27932 ft 353 kts 269°
2026-05-05 19:04 60.29134 9.05899 27921 ft 353 kts 269°
2026-05-05 19:05 60.29082 9.00946 27923 ft 354 kts 269°
2026-05-05 19:05 60.29029 8.95982 27915 ft 354 kts 269°
2026-05-05 19:05 60.28973 8.91035 27934 ft 353 kts 269°
2026-05-05 19:05 60.28916 8.86089 27926 ft 354 kts 269°
2026-05-05 19:06 60.28857 8.81101 27911 ft 354 kts 269°
2026-05-05 19:06 60.28796 8.76157 27925 ft 354 kts 269°
2026-05-05 19:06 60.28733 8.71197 27923 ft 354 kts 269°
2026-05-05 19:06 60.28668 8.66230 27935 ft 354 kts 269°
2026-05-05 19:07 60.28603 8.61344 27940 ft 354 kts 269°
2026-05-05 19:07 60.28534 8.56372 27949 ft 355 kts 269°
2026-05-05 19:07 60.28464 8.51405 27943 ft 355 kts 269°
2026-05-05 19:07 60.28392 8.46421 27939 ft 355 kts 269°
2026-05-05 19:08 60.28318 8.41453 27944 ft 355 kts 268°
2026-05-05 19:08 60.28242 8.36469 27946 ft 356 kts 268°
2026-05-05 19:08 60.28164 8.31473 27940 ft 356 kts 268°
2026-05-05 19:08 60.28084 8.26482 27949 ft 357 kts 268°
2026-05-05 19:09 60.28001 8.21473 27942 ft 357 kts 268°
2026-05-05 19:09 60.27918 8.16473 27954 ft 357 kts 268°
2026-05-05 19:09 60.27832 8.11466 27954 ft 358 kts 268°
2026-05-05 19:09 60.27744 8.06457 27953 ft 354 kts 268°
2026-05-05 19:10 60.27664 8.01997 27942 ft 342 kts 268°
2026-05-05 19:10 60.27577 7.97242 27949 ft 337 kts 268°
2026-05-05 19:10 60.27490 7.92543 27959 ft 336 kts 268°
2026-05-05 19:10 60.27400 7.87821 27965 ft 338 kts 268°
2026-05-05 19:11 60.27308 7.83079 27957 ft 336 kts 268°
2026-05-05 19:11 60.27217 7.78448 27687 ft 327 kts 268°
2026-05-05 19:11 60.27127 7.73942 27081 ft 326 kts 268°
2026-05-05 19:11 60.27034 7.69321 26385 ft 327 kts 268°
2026-05-05 19:12 60.26939 7.64747 25792 ft 326 kts 268°
2026-05-05 19:12 60.26845 7.60283 25290 ft 322 kts 268°
2026-05-05 19:12 60.26749 7.55776 24700 ft 321 kts 268°
2026-05-05 19:12 60.26651 7.51302 24208 ft 318 kts 268°
2026-05-05 19:13 60.26554 7.46875 23720 ft 315 kts 268°
2026-05-05 19:13 60.26456 7.42498 23178 ft 312 kts 268°
2026-05-05 19:13 60.26357 7.38150 22680 ft 308 kts 268°
2026-05-05 19:13 60.26258 7.33874 22203 ft 304 kts 268°
2026-05-05 19:14 60.26160 7.29647 21753 ft 300 kts 268°
2026-05-05 19:14 60.26061 7.25466 21308 ft 297 kts 269°
2026-05-05 19:14 60.25961 7.21326 20850 ft 295 kts 269°
2026-05-05 19:14 60.25861 7.17196 20412 ft 296 kts 269°
2026-05-05 19:15 60.25760 7.13063 19963 ft 296 kts 269°
2026-05-05 19:15 60.25657 7.08907 19531 ft 300 kts 269°
2026-05-05 19:15 60.25550 7.04616 19106 ft 313 kts 269°
2026-05-05 19:15 60.25437 7.00190 18635 ft 317 kts 269°
2026-05-05 19:16 60.25322 6.95757 18156 ft 316 kts 269°
2026-05-05 19:16 60.25206 6.91350 17624 ft 314 kts 269°
2026-05-05 19:16 60.25089 6.86978 17161 ft 311 kts 269°
2026-05-05 19:16 60.24973 6.82650 16717 ft 307 kts 269°
2026-05-05 19:17 60.24858 6.78427 16289 ft 305 kts 269°
2026-05-05 19:17 60.24741 6.74171 15849 ft 303 kts 269°
2026-05-05 19:17 60.24625 6.69946 15425 ft 301 kts 269°
2026-05-05 19:17 60.24507 6.65746 15003 ft 300 kts 269°
2026-05-05 19:18 60.24387 6.61513 14400 ft 306 kts 269°
2026-05-05 19:18 60.24265 6.57291 14084 ft 300 kts 269°
2026-05-05 19:18 60.24146 6.53090 13606 ft 299 kts 269°
2026-05-05 19:18 60.24030 6.48930 13214 ft 295 kts 269°
2026-05-05 19:19 60.23917 6.44813 12835 ft 293 kts 269°
2026-05-05 19:19 60.23801 6.40703 12450 ft 296 kts 269°
2026-05-05 19:19 60.23685 6.36537 12075 ft 299 kts 269°
2026-05-05 19:19 60.23566 6.32314 11668 ft 306 kts 269°
2026-05-05 19:20 60.23442 6.28016 11252 ft 308 kts 269°
2026-05-05 19:20 60.23316 6.23733 10844 ft 305 kts 268°
2026-05-05 19:20 60.23189 6.19480 10546 ft 300 kts 268°
2026-05-05 19:20 60.23065 6.15418 10414 ft 290 kts 268°
2026-05-05 19:21 60.22944 6.11451 10274 ft 279 kts 268°
2026-05-05 19:21 60.22826 6.07597 10153 ft 270 kts 268°
2026-05-05 19:21 60.22712 6.03894 10035 ft 261 kts 268°
2026-05-05 19:21 60.22601 6.00299 9829 ft 256 kts 268°
2026-05-05 19:22 60.22491 5.96751 9552 ft 253 kts 268°
2026-05-05 19:22 60.22380 5.93239 9255 ft 250 kts 268°
2026-05-05 19:22 60.22268 5.89752 8996 ft 249 kts 268°
2026-05-05 19:22 60.22149 5.86284 8695 ft 248 kts 265°
2026-05-05 19:23 60.21589 5.83020 8442 ft 248 kts 242°
2026-05-05 19:23 60.20723 5.80068 8269 ft 241 kts 242°
2026-05-05 19:23 60.20170 5.78172 8206 ft 235 kts 242°
2026-05-05 19:23 60.19359 5.75385 8104 ft 227 kts 242°
2026-05-05 19:24 60.17952 5.72388 7940 ft 229 kts 208°
2026-05-05 19:24 60.16401 5.71848 7904 ft 227 kts 176°
2026-05-05 19:24 60.14841 5.72646 7931 ft 239 kts 163°
2026-05-05 19:24 60.13761 5.73426 7921 ft 247 kts 161°
2026-05-05 19:25 60.12111 5.74562 7933 ft 252 kts 173°
2026-05-05 19:25 60.10401 5.74667 7944 ft 248 kts 184°
2026-05-05 19:25 60.08674 5.74600 7927 ft 248 kts 183°
2026-05-05 19:25 60.06951 5.74530 7911 ft 247 kts 188°
2026-05-05 19:26 60.05285 5.73690 7774 ft 247 kts 202°
2026-05-05 19:26 60.03654 5.72464 7546 ft 251 kts 204°
2026-05-05 19:26 60.02027 5.71223 7344 ft 248 kts 204°
2026-05-05 19:26 60.00553 5.69547 7121 ft 241 kts 220°
2026-05-05 19:27 59.99287 5.67438 6924 ft 236 kts 223°
2026-05-05 19:27 59.98044 5.65299 6732 ft 236 kts 223°
2026-05-05 19:27 59.96843 5.63071 6534 ft 233 kts 234°
2026-05-05 19:27 59.95981 5.60347 6349 ft 232 kts 243°
2026-05-05 19:28 59.95239 5.57488 6142 ft 232 kts 251°
2026-05-05 19:28 59.95064 5.54367 5940 ft 227 kts 282°
2026-05-05 19:28 59.95696 5.51535 5742 ft 224 kts 310°
2026-05-05 19:28 59.96914 5.49644 5562 ft 224 kts 335°
2026-05-05 19:29 59.98358 5.48600 5387 ft 224 kts 342°
2026-05-05 19:29 59.99849 5.47710 5188 ft 225 kts 342°
2026-05-05 19:29 60.01356 5.46815 4997 ft 225 kts 342°
2026-05-05 19:29 60.02851 5.45908 4805 ft 225 kts 342°
2026-05-05 19:30 60.04356 5.44980 4603 ft 225 kts 342°
2026-05-05 19:30 60.05853 5.44050 4409 ft 225 kts 342°
2026-05-05 19:30 60.07340 5.43123 4221 ft 224 kts 342°
2026-05-05 19:30 60.08769 5.41940 4019 ft 222 kts 322°
2026-05-05 19:31 60.09703 5.39541 3839 ft 219 kts 294°
2026-05-05 19:31 60.10111 5.36614 3674 ft 217 kts 282°
2026-05-05 19:31 60.10382 5.33660 3472 ft 213 kts 281°
2026-05-05 19:31 60.10634 5.30760 3292 ft 209 kts 282°
2026-05-05 19:32 60.11214 5.28231 3097 ft 202 kts 319°
2026-05-05 19:32 60.12478 5.27225 2973 ft 200 kts 357°
2026-05-05 19:32 60.13839 5.27061 2845 ft 191 kts 351°
2026-05-05 19:32 60.15125 5.26636 2669 ft 183 kts 349°
2026-05-05 19:33 60.16351 5.26210 2546 ft 175 kts 349°
2026-05-05 19:33 60.17540 5.25804 2424 ft 173 kts 349°
2026-05-05 19:33 60.18734 5.25400 2182 ft 173 kts 349°
2026-05-05 19:33 60.19915 5.25000 1945 ft 171 kts 349°
2026-05-05 19:34 60.21089 5.24604 1704 ft 170 kts 349°
2026-05-05 19:34 60.22253 5.24212 1456 ft 169 kts 349°
2026-05-05 19:34 60.23399 5.23823 1227 ft 164 kts 349°
2026-05-05 19:35 60.25416 5.23133 748 ft 135 kts 347°
2026-05-05 19:35 60.26349 5.22807 601 ft 139 kts 348°
2026-05-05 19:35 60.27319 5.22478 408 ft 140 kts 348°
2026-05-05 19:35 60.28271 5.22166 204 ft 139 kts 348°
2026-05-05 19:36 60.29163 5.21874 160 ft 118 kts 349°
2026-05-05 19:36 60.29767 5.21665 146 ft 57 kts 351°
2026-05-05 19:36 60.30000 5.21607 157 ft 17 kts 11°
2026-05-05 19:36 60.30043 5.21767 160 ft 6 kts 80°
2026-05-05 19:37 60.30045 5.21852 159 ft 7 kts 96°
2026-05-05 19:37 60.30044 5.21866 159 ft 0 kts 102°
2026-05-05 19:37 60.30041 5.21881 159 ft 3 kts 113°
2026-05-05 19:38 60.30020 5.21906 158 ft 5 kts 168°
2026-05-05 19:38 60.29950 5.21932 155 ft 15 kts 170°
2026-05-05 19:38 60.29927 5.21939 154 ft 0 kts 171°
2026-05-05 19:38 60.29894 5.21949 153 ft 10 kts 171°
2026-05-05 19:39 60.29829 5.21971 150 ft 7 kts 171°
2026-05-05 19:39 60.29800 5.21981 149 ft 0 kts 171°
2026-05-05 19:40 60.29798 5.21981 149 ft 2 kts 171°
2026-05-05 19:40 60.29750 5.21998 148 ft 13 kts 170°
2026-05-05 19:40 60.29628 5.22039 151 ft 21 kts 171°
2026-05-05 19:40 60.29482 5.22088 156 ft 21 kts 169°
2026-05-05 19:41 60.29342 5.22138 162 ft 20 kts 170°
2026-05-05 19:41 60.29204 5.22185 168 ft 20 kts 170°
2026-05-05 19:41 60.29070 5.22230 174 ft 19 kts 171°
2026-05-05 19:41 60.28918 5.22276 170 ft 24 kts 171°
2026-05-05 19:42 60.28851 5.22300 170 ft 6 kts 168°
2026-05-05 19:42 60.28766 5.22331 169 ft 16 kts 170°
2026-05-05 19:42 60.28694 5.22396 168 ft 10 kts 113°
2026-05-05 19:42 60.28713 5.22529 173 ft 10 kts 78°
2026-05-05 19:43 60.28724 5.22665 173 ft 10 kts 82°
2026-05-05 19:43 60.28680 5.22749 171 ft 10 kts 167°
2026-05-05 19:43 60.28653 5.22807 172 ft 5 kts 93°
2026-05-05 19:43 60.28658 5.22877 174 ft 5 kts 81°
2026-05-05 19:44 60.28661 5.22921 175 ft 1 kts 81°
2026-05-05 19:44 60.28662 5.22926 175 ft 0 kts 81°